TimeCET,TemperatureF,Dew PointF,Humidity,Sea Level PressureIn,VisibilityMPH,Wind Direction,Wind SpeedMPH,Gust SpeedMPH,PrecipitationIn,Events,Conditions,WindDirDegrees,DateUTC
1:00 AM,33,31,88,30.49,4,Calm,Calm,,,,Mist,,2013-01-08 00:00:00
6:00 AM,26.6,26.6,100,30.39,3.1,Calm,Calm,-,N/A,,Mist,0,2013-01-08 05:00:00
6:30 AM,28.4,28.4,100,30.39,3.1,Calm,Calm,-,N/A,,Mist,0,2013-01-08 05:30:00
7:00 AM,27,25,90,30.52,2,Calm,Calm,,,,Mist,,2013-01-08 06:00:00
7:00 AM,28.4,26.6,93,30.39,1.2,Calm,Calm,-,N/A,Fog,Patches of Fog,0,2013-01-08 06:00:00
7:06 AM,28.4,26.6,93,30.39,0.6,Calm,Calm,-,N/A,Fog,Patches of Fog,0,2013-01-08 06:06:00
7:11 AM,28.4,26.6,93,30.39,0.4,Calm,Calm,-,N/A,Fog,Patches of Fog,0,2013-01-08 06:11:00
7:30 AM,28.4,28.4,100,30.39,0.4,Calm,Calm,-,N/A,Fog,Patches of Fog,0,2013-01-08 06:30:00
8:00 AM,26.6,26.6,100,30.39,1.9,Variable,1.2,-,N/A,Fog,Patches of Fog,0,2013-01-08 07:00:00
8:30 AM,26.6,26.6,100,30.42,1.9,Calm,Calm,-,N/A,Fog,Patches of Fog,0,2013-01-08 07:30:00
9:00 AM,26.6,26.6,100,30.42,1.9,Variable,1.2,-,N/A,,Partly Cloudy,0,2013-01-08 08:00:00
9:30 AM,30.2,30.2,100,30.42,2.5,Calm,Calm,-,N/A,,Partly Cloudy,0,2013-01-08 08:30:00
10:00 AM,32.0,30.2,93,30.45,2.5,Variable,2.3,-,N/A,,Partly Cloudy,0,2013-01-08 09:00:00
10:30 AM,33.8,32.0,93,30.45,3.1,Calm,Calm,-,N/A,,Partly Cloudy,0,2013-01-08 09:30:00
11:00 AM,35.6,32.0,87,30.45,3.1,Calm,Calm,-,N/A,,Partly Cloudy,0,2013-01-08 10:00:00
11:30 AM,39.2,35.6,87,30.45,3.7,Calm,Calm,-,N/A,,Unknown,0,2013-01-08 10:30:00
12:00 PM,41.0,35.6,81,30.45,5.0,Calm,Calm,-,N/A,,Unknown,0,2013-01-08 11:00:00
12:30 PM,44.6,37.4,76,30.42,5.0,Calm,Calm,-,N/A,,Unknown,0,2013-01-08 11:30:00
1:00 PM,49,39,58,30.44,7,Calm,Calm,,,,,,2013-01-08 12:00:00
1:00 PM,46.4,39.2,76,30.42,5.6,Calm,Calm,-,N/A,,Unknown,0,2013-01-08 12:00:00
1:30 PM,50.0,41.0,71,30.39,6.2,Calm,Calm,-,N/A,,Unknown,0,2013-01-08 12:30:00
2:00 PM,51.8,41.0,67,30.39,6.2,Calm,Calm,-,N/A,,Unknown,0,2013-01-08 13:00:00
2:30 PM,53.6,41.0,62,30.36,6.2,Variable,1.2,-,N/A,,Unknown,0,2013-01-08 13:30:00
3:00 PM,53.6,41.0,62,30.36,-9999.0,Calm,Calm,-,N/A,,Clear,0,2013-01-08 14:00:00
3:30 PM,53.6,41.0,62,30.36,-9999.0,Calm,Calm,-,N/A,,Clear,0,2013-01-08 14:30:00
4:00 PM,53.6,41.0,62,30.36,-9999.0,Variable,1.2,-,N/A,,Clear,0,2013-01-08 15:00:00
5:00 PM,55.4,39.2,54,30.33,-9999.0,Variable,2.3,-,N/A,,Clear,0,2013-01-08 16:00:00
5:30 PM,53.6,41.0,62,30.33,-9999.0,West,4.6,-,N/A,,Clear,270,2013-01-08 16:30:00
6:00 PM,51.8,39.2,62,30.36,-9999.0,WSW,3.5,-,N/A,,Clear,250,2013-01-08 17:00:00
6:30 PM,48.2,39.2,71,30.36,-9999.0,SW,8.1,-,N/A,,Clear,230,2013-01-08 17:30:00
7:00 PM,46,36,59,30.39,19,SW,9.2,,,,Clear,230,2013-01-08 18:00:00
7:00 PM,46.4,37.4,71,30.36,-9999.0,SW,8.1,-,N/A,,Clear,230,2013-01-08 18:00:00
7:30 PM,46.4,37.4,71,30.36,-9999.0,WSW,9.2,-,N/A,,Clear,250,2013-01-08 18:30:00
8:00 PM,42.8,37.4,81,30.36,-9999.0,West,5.8,-,N/A,,Clear,260,2013-01-08 19:00:00
8:30 PM,42.8,37.4,81,30.36,-9999.0,Variable,2.3,-,N/A,,Clear,0,2013-01-08 19:30:00
9:00 PM,42.8,35.6,76,30.39,-9999.0,Calm,Calm,-,N/A,,Clear,0,2013-01-08 20:00:00
9:30 PM,41.0,35.6,81,30.39,-9999.0,Variable,2.3,-,N/A,,Clear,0,2013-01-08 20:30:00
10:00 PM,37.4,33.8,87,30.39,-9999.0,SW,3.5,-,N/A,,Clear,230,2013-01-08 21:00:00
10:30 PM,37.4,33.8,87,30.39,-9999.0,Variable,2.3,-,N/A,,Clear,0,2013-01-08 21:30:00
11:00 PM,35.6,33.8,93,30.39,-9999.0,Variable,2.3,-,N/A,,Clear,0,2013-01-08 22:00:00